Location: Kelowna
(49.8880°N, 119.4960°W)
Time: 21:15:35
(UTC-07:00)

AO-85 - Visible Passes

Search period start: 15 April 2024 00:00
Search period end: 25 April 2024 00:00
Orbit: 516 x 753 km, 64.8° (Epoch: 04 January)

Date Brightness Start Highest point End Pass type
(mag) Time Alt. Az. Time Alt. Az. Time Alt. Az.
15 Apr ? 01:33:44 19° ENE 01:33:44 19° ENE 01:35:27 10° ENE visible
15 Apr ? 03:10:56 45° WNW 03:11:22 47° NW 03:15:52 10° NNE visible
15 Apr ? 04:49:31 10° WNW 04:52:31 17° NNW 04:55:38 10° NNE visible
16 Apr ? 01:51:48 35° ENE 01:51:48 35° ENE 01:54:39 10° NE visible
16 Apr ? 03:29:01 24° WNW 03:30:29 30° NW 03:34:38 10° NNE visible
16 Apr ? 05:09:26 10° NW 05:11:59 14° N 05:14:36 10° NNE visible
17 Apr ? 02:09:50 56° NNE 02:09:50 56° NNE 02:13:35 10° NE visible
17 Apr ? 03:47:02 13° WNW 03:49:44 21° NNW 03:53:22 10° NNE visible
18 Apr ? 00:50:38 18° ENE 00:50:38 18° ENE 00:52:03 10° NE visible
18 Apr ? 02:27:50 44° NW 02:27:55 44° NW 02:32:23 10° NNE visible
18 Apr ? 04:06:10 10° WNW 04:09:06 17° NNW 04:12:10 10° NNE visible
19 Apr ? 01:08:34 32° ENE 01:08:34 32° ENE 01:11:11 10° NE visible
19 Apr ? 02:45:46 25° WNW 02:47:02 29° NNW 02:51:07 10° NNE visible
19 Apr ? 04:26:03 10° NW 04:28:34 14° N 04:31:09 10° NNE visible
20 Apr ? 01:26:28 51° NNE 01:26:28 51° NNE 01:30:05 10° NE visible
20 Apr ? 03:03:39 13° WNW 03:06:17 21° NNW 03:09:51 10° NNE visible
20 Apr ? 04:45:42 10° NNW 04:48:03 13° N 04:50:28 10° NNE visible
21 Apr ? 00:07:06 18° ENE 00:07:06 18° ENE 00:08:34 10° NE visible
21 Apr ? 01:44:18 41° NW 01:44:24 42° NW 01:48:51 10° NNE visible
21 Apr ? 03:22:44 10° NW 03:25:39 16° NNW 03:28:39 10° NNE visible
21 Apr ? 05:04:57 10° NNW 05:07:32 14° N 05:10:12 10° NE visible
22 Apr ? 00:24:52 35° NE 00:24:52 35° NE 00:27:38 10° NE visible
22 Apr ? 02:02:03 23° WNW 02:03:31 27° NNW 02:07:33 10° NNE visible
22 Apr ? 03:42:35 10° NW 03:45:05 14° N 03:47:38 10° NNE visible
22 Apr ? 23:05:22 11° ENE 23:05:22 11° ENE 23:05:36 10° ENE visible
23 Apr ? 00:42:32 57° N 00:42:32 57° N 00:46:30 10° NE visible
23 Apr ? 02:19:43 11° WNW 02:22:45 20° NNW 02:26:16 10° NNE visible
23 Apr ? 04:02:11 10° NNW 04:04:33 14° N 04:06:59 10° NNE visible
23 Apr ? 23:22:56 23° ENE 23:22:56 23° ENE 23:25:02 10° NE visible
24 Apr ? 01:00:06 36° WNW 01:00:49 39° NW 01:05:14 10° NNE visible
24 Apr ? 02:39:16 10° NW 02:42:07 16° NNW 02:45:03 10° NNE visible
24 Apr ? 04:21:21 10° NNW 04:24:01 15° N 04:26:45 10° NE visible
24 Apr ? 23:40:22 53° ENE 23:40:22 53° ENE 23:44:03 10° NE visible
